Terug naar catalogus

SL-8 DEB *

ActiefLEO
NORAD 18509·DEBRIS·🇷🇺 Russia

Gelanceerd Jun 1, 1982 vanaf Plesetsk Cosmodrome

Loading…

Volgende Passages (komende 24 uur)

TLE

VersSource: Space-Track

Epoch: Sep 14, 2026, 14:40 UTC

1 18509U 82051E   26257.61180470  .00001314  00000-0  26231-3 0  9994
2 18509  74.0020 177.7651 0006806 188.8293 231.5306 14.62992191 90745

Volg SL-8 DEB * in realtime met AllMySat

Download on the App Store